Flag for U.S.A. Weather past 2 weeks in Fremont, California, U.S.A.

Now
78 °F

Sunny.


Feels Like: 79 °F
Forecast: 61 / 77 °F
Wind: 20 mph from North

Location: Moffett Field

Current Time: Aug 30, 2015 at 4:11:49 PM

Latest Report: Aug 30, 2015 at 2:56 PM


Visibility: 10 mi

Pressure: 30.01 "Hg

Humidity: 48%

Dew point: 57 °F

Location of FremontLocation

Historic Weather in Fremont — Graph

°F

Fremont temperature yesterday

Maximum temperature yesterday: 79 °F (at 1:56 PM)
Minimum temperature yesterday: 65 °F (at 10:56 PM)
Average temperature yesterday: 71 °F

Past Weeks' High & Low Weather Summary

 TemperatureHumidityPressure
High95 °F (Aug 15, 3:56 PM)90% (Aug 26, 1:56 AM)30.08 "Hg (Aug 26, 1:56 AM)
Low60 °F (Aug 25, 4:56 AM)22% (Aug 16, 2:56 PM)29.80 "Hg (Aug 16, 4:56 PM)
Average70 °F67%29.95 "Hg
* Reported Aug 15 1:56 PM — Aug 30 1:56 PM, Fremont, Weather by CustomWeather, © 2015

Note: Actual official high and low records may vary slightly from our data, if they occured in-between our weather recording intervals... More about our weather records

Advertising

Fremont weather history for previous 24 hours

 ConditionsComfort  
Time TempWeatherWind HumidityBarometerVisibility
1:56 PM
Sun, Aug 30
77 °FSunny.17 mph48%30.03 "Hg10 mi
12:56 PM75 °FSunny.17 mph54%30.05 "Hg10 mi
11:56 AM73 °FSunny.12 mph59%30.06 "Hg10 mi
10:56 AM72 °FSunny.9 mph66%30.08 "Hg10 mi
9:56 AM70 °FSunny.7 mph66%30.07 "Hg10 mi
8:56 AM68 °FSunny.5 mph68%30.07 "Hg10 mi
7:56 AM65 °FSunny.No wind73%30.07 "Hg10 mi
6:56 AM63 °FPassing clouds.No wind75%30.05 "Hg10 mi
5:56 AM63 °FOvercast.No wind75%30.03 "Hg10 mi
4:56 AM62 °FPassing clouds.No wind78%30.03 "Hg10 mi
3:56 AM62 °FPassing clouds.No wind73%30.03 "Hg10 mi
2:56 AM63 °FPassing clouds.No wind70%30.02 "Hg10 mi
1:56 AM64 °FOvercast.No wind70%30.03 "Hg10 mi
12:56 AM65 °FPassing clouds.No wind78%30.03 "Hg10 mi
11:56 PM
Sat, Aug 29
65 °FPassing clouds.3 mph78%30.02 "Hg10 mi
10:56 PM65 °FClear.5 mph78%30.03 "Hg10 mi
9:56 PM66 °FClear.7 mph73%30.03 "Hg10 mi
8:56 PM68 °FClear.8 mph63%30.01 "Hg10 mi
7:56 PM71 °FSunny.6 mph51%29.99 "Hg10 mi
6:56 PM73 °FSunny.10 mph55%29.99 "Hg10 mi
5:56 PM77 °FSunny.17 mph54%29.98 "Hg10 mi
4:56 PM76 °FSunny.20 mph60%29.98 "Hg10 mi
Weather by CustomWeather, © 2015

See weather overviewHow to use our weather pages